Regional Weather Roundup
Issued by NWS

Home | Current Version | Previous Version | Graphics & Text | Print | Product List | Glossary On
Versions: 1 2 3 4 5 6 7 8 9 10 11 12 13 14 15 16 17 18 19 20 21 22 23 24 25 26 27 28 29 30 31 32 33 34 35 36 37 38 39 40 41 42 43 44 45 46 47 48 49 50
000
ASUS43 KMPX 300510
RWRMN
WEATHER ROUNDUP FOR MINNESOTA
NATIONAL WEATHER SERVICE TWIN CITIES/CHANHASSEN MN
1200 AM CDT SUN AUG 30 2015


NOTE: "FAIR" INDICATES FEW OR NO CLOUDS BELOW 12,000 FEET WITH NO
SIGNIFICANT WEATHER AND/OR OBSTRUCTIONS TO VISIBILITY. N/A MEANS
CURRENT SKY AND/OR WEATHER CONDITIONS ARE NOT AVAILABLE.

MNZ060>063-068>070-300600-
   Twin Cities Metro

CITY           SKY/WX    TMP DP  RH WIND       PRES   REMARKS
TWIN CITIES    MOCLDY    67  63  87 S6        30.01S
ST PAUL        PTCLDY    64  63  96 SE5       30.02R
CRYSTAL        PTCLDY    66  62  87 S3        29.99S
BLAINE         PTCLDY    64  64 100 S3        30.00S
LAKEVILLE      FOG       57  57 100 CALM      30.02S VSB 1/4
EDEN PRAIRIE   CLEAR     63  61  93 S6        30.00S
SOUTH ST PAUL  PTCLDY    65  63  93 S5        30.01S
LAKE ELMO      FAIR      63  61  94 S6        30.03R
$$
MNZ001>005-007-008-013>017-022>024-027-028-300600-
   Northwest Minnesota

CITY           SKY/WX    TMP DP  RH WIND       PRES   REMARKS
BEMIDJI        CLEAR     65  61  88 S6        29.91F
HALLOCK        CLEAR     68  66  94 S9        29.79S
ROSEAU         CLEAR     70  64  83 S12       29.82F
WARROAD        CLEAR     70  64  83 S8        29.83R
THIEF RVR FALL PTCLDY   N/A N/A N/A S12       29.84F
CROOKSTON      CLEAR     70  64  83 S14       29.84S
FOSSTON        CLEAR     64  61  88 S10       29.89S
DETROIT LAKES  CLEAR     66  63  88 S8        29.92F
MOORHEAD       CLEAR     68  64  88 S14       29.88S
PARK RAPIDS    FAIR      64  61  90 S8        29.94F
MAHNOMEN       FAIR      66  63  89 S10       29.89F
$$
MNZ006-009>011-018-025>026-300600-
   North Central Minnesota

CITY           SKY/WX    TMP DP  RH WIND       PRES   REMARKS
BAUDETTE       CLEAR     67  64  90 S9        29.85F
FLAG ISLAND    CLEAR     66  66 100 S7        29.81F
INTL FALLS     MOCLDY    66  63  90 VRB5      29.89F
WASKISH        FAIR      66  63  88 S7        29.88F
BIG FORK       PTCLDY    64  61  88 S6        29.93F
LONGVILLE      CLEAR     64  63  94 S5        29.95F
GRAND RAPIDS     N/A     63  59  88 S8        29.96F
CRANE LAKE     PTCLDY    63  61  94 S5        29.94F
ORR            PTCLDY    63  59  88 CALM      29.91F
COOK           CLEAR     64  61  88 S3        29.95F
WALKER         FAIR      64  62  90 S8        29.93F
$$
MNZ012-019>021-037-300600-
   Northeast Minnesota

CITY           SKY/WX    TMP DP  RH WIND       PRES   REMARKS
DULUTH         PTCLDY    64  61  90 SW10      29.98S
ELY            PTCLDY    63  61  94 SW6       29.96F
HIBBING        CLEAR     62  60  93 CALM      29.96F
EVELETH        PTCLDY    63  61  94 SW3       29.98F
DULUTH HARBOR  PTCLDY    64  63  94 SW7       29.97S
TWO HARBORS    CLEAR     64  59  82 CALM      29.96S
SILVER BAY     CLEAR     61  59  94 CALM      29.96S
GRAND MARAIS     N/A     54  51  90 CALM      29.95F
G MARAIS ARPRT CLOUDY    63  59  88 CALM      30.00S
$$
MNZ029>031-032-039>041-046>048-054>057-064-300600-
   West Central Minnesota

CITY           SKY/WX    TMP DP  RH WIND       PRES   REMARKS
FERGUS FALLS   CLEAR     66  66 100 S10       29.91F
WHEATON        CLEAR     64  61  88 S9        29.92S
MORRIS         CLEAR     64  63  94 SE7       29.93S
ALEXANDRIA     CLEAR     65  64  97 S9        29.97F
ELBOW LAKE     FAIR      64  64  97 S10       29.93S
WADENA         CLEAR     63  61  94 S6        29.94F
GLENWOOD       CLEAR     64  63  94 S8        29.97F
APPLETON       CLEAR     68  63  83 S8        29.93F
BENSON         CLEAR     64  61  88 S7        29.95F
ORTONVILLE     CLEAR     64  61  88 S8        29.93F
MADISON        CLEAR     63  61  94 S7        29.94F
WILLMAR        FAIR      63  63 100 SE5       29.99F
$$
MNZ033>034-036-042>043-049>051-058-059-300600-
   Central Minnesota

CITY           SKY/WX    TMP DP  RH WIND       PRES   REMARKS
ST CLOUD       CLEAR     60  60 100 S5        29.98F
SAUK CENTRE    CLOUDY    61  61  99 SE5       29.97F
PAYNESVILLE    CLEAR     63  62  96 SE6       29.98F
AITKIN         CLEAR     64  57  77 S9        29.96F
PINE RIVER     CLEAR     63  63 100 SE5       29.99F
BRAINERD       CLEAR     61  60  97 S7        29.98F
STAPLES        CLEAR     63  61  94 S7        29.96S
LONG PRAIRIE   CLOUDY    61  61 100 SE7       29.98S
LITTLE FALLS   CLEAR     61  59  94 S3        29.98S
LITCHFIELD     CLEAR     64  64 100 SE5       30.00F
BUFFALO        CLEAR     62  59  90 CALM      30.01S
MAPLE LAKE     CLEAR     63  62  97 S3        30.00F
$$
MNZ037-044-045-052-053-300600-
   East Central Minnesota

CITY           SKY/WX    TMP DP  RH WIND       PRES   REMARKS
PRINCETON      CLEAR     63  61  94 SE5       29.99F
MORA           PTCLDY    59  57  94 CALM      30.01F
CAMBRIDGE      PTCLDY    64  55  72 S3        29.98F
RUSH CITY      PTCLDY    62  60  94 S3        30.01S
MOOSE LAKE     MOCLDY    63  61  94 S3        29.98S
HINCKLEY       FAIR      63  61  94 CALM      30.00S
CLOQUET        PTCLDY    64  61  88 SW7       29.99S
MCGREGOR       PTCLDY    63  61  94 S5        29.99S
$$
MNZ071>073-080-081-089-090-097-098-300600-
   Southwest Minnesota

CITY           SKY/WX    TMP DP  RH WIND       PRES   REMARKS
MONTEVIDEO     CLEAR     64  64 100 SW9       29.96F
GRANITE FALLS  CLEAR     62  61  97 SE5       29.98F
CANBY          CLEAR     63  61  93 SE6       29.96F
MARSHALL       CLEAR     64  59  82 S9        29.98F
REDWOOD FALLS  CLEAR     63  61  93 SE9       29.98F
OLIVIA         CLEAR     59  57  94 SE6       29.98F
PIPESTONE      PTCLDY    63  61  94 S6        30.01S FOG
WINDOM         MOCLDY    63  61  94 CALM      30.02S
WORTHINGTON    CLOUDY    63  59  88 S12       30.02S
JACKSON        CLOUDY    61  61 100 S8        30.04F FOG
TRACY          CLEAR     65  63  93 S13       29.99F
SLAYTON        CLEAR     62  62 100 S10       30.02S
$$
MNZ065>067-074>077-082>085-091>093-300600-
   South Central Minnesota

CITY           SKY/WX    TMP DP  RH WIND       PRES   REMARKS
MANKATO        CLEAR     61  57  88 S6        30.02F
NEW ULM        CLEAR     63  63 100 S10       30.00F
ST JAMES       CLEAR     61  61 100 S9        30.02F
FAIRMONT       PTCLDY    57  52  82 S7        30.03F
GLENCOE        CLEAR     64  63  97 S7        30.00F
FARIBAULT      CLEAR     63  63 100 CALM      30.03S FOG
OWATONNA       CLEAR     63  61  94 S6        30.03F FOG
WASECA         CLEAR     59  59 100 S5        30.04F FOG
ALBERT LEA     FOG       63  63 100 CALM      30.04F VSB 1/4
$$
MNZ078>079-086>088-094>096-300600-
   Southeast Minnesota

CITY           SKY/WX    TMP DP  RH WIND       PRES   REMARKS
ROCHESTER      CLEAR     59  58  96 S8        30.05F FOG
RED WING       CLEAR     64  61  88 S3        30.01F
STANTON        CLEAR     63  60  93 CALM      30.01S FOG
DODGE CENTER   CLEAR     57  57 100 S7        30.04F
WINONA         CLEAR     61  59  94 CALM      30.05S
AUSTIN         PTCLDY    64  61  88 S5        30.05S
PRESTON        CLEAR     59  57  94 CALM      30.07S FOG
$$
ABBREVIATIONS USED IN REMARKS
   TC - TEMPERATURES IN CELSIUS
  WCI - WIND CHILL INDEX
   HX - HEAT INDEX
  VSB - VISIBILITY
$$


USA.gov is the U.S. government's official web portal to all federal, state and local government web resources and services.